Regional Weather Roundup
Issued by NWS

Home | Current Version | Previous Version | Graphics & Text | Print | Product List | Glossary On
Versions: 1 2 3 4 5 6 7 8 9 10 11 12 13 14 15 16 17 18 19 20 21 22 23 24 25 26 27 28 29 30 31 32 33 34 35 36 37 38 39 40 41 42 43 44 45 46 47 48 49 50
000
ASUS43 KDMX 231801
RWRIA

WEATHER ROUNDUP FOR IOWA
NATIONAL WEATHER SERVICE DES MOINES IA
100 PM CDT MON APR 23 2018

NOTE: "FAIR" INDICATES FEW OR NO CLOUDS BELOW 12,000 FEET WITH NO
SIGNIFICANT WEATHER AND/OR OBSTRUCTIONS TO VISIBILITY.

* - THESE STATIONS ARE NOT NWS STATIONS...THUS NOT UNDER NWS
QUALITY CONTROL.  THEY ALSO DO NOT REPORT WEATHER SUCH
AS PRECIPITATION OR FOG.

IAZ001>003-012>014-020>022-031>034-043>046-231900-
   NORTHWEST IOWA

CITY           SKY/WX    TMP DP  RH WIND       PRES   REMARKS
CARROLL *      SUNNY     68  34  28 NE12      30.16F
CHEROKEE *     SUNNY     66  32  28 NE10      30.18F
DENISON *      SUNNY     66  30  26 NE10      30.18F
LE MARS *      SUNNY     68  30  24 VRB6G13   30.18F
ORANGE CITY *  SUNNY     66  36  32 SE6       30.19F
SHELDON *      SUNNY     64  34  32 VRB7G13   30.18F
SIOUX CITY     SUNNY     68  33  27 E7        30.17F
6HR MIN TEMP:  35; 6HR MAX TEMP:  68;

SPENCER        SUNNY     66  35  31 VRB5      30.20F
6HR MIN TEMP:  33; 6HR MAX TEMP:  66;

STORM LAKE *     N/A     63  34  34 NE14      30.18F
$$

IAZ055>058-069>071-079>083-090>094-231900-
   SOUTHWEST IOWA

CITY           SKY/WX    TMP DP  RH WIND       PRES   REMARKS
ATLANTIC *     SUNNY     68  27  21 VRB6G16   30.14F
AUDUBON *      SUNNY     70  27  19 NE10      30.17F
CLARINDA *     SUNNY     70  30  23 NE12G20   30.15F
COUNCIL BLFS * SUNNY     68  30  24 VRB5G18   30.15F
CRESTON *      SUNNY     68  30  24 NE10G18   30.15F
HARLAN  *      SUNNY     70  28  21 NE10      30.18F
LAMONI         SUNNY     69  35  28 NE14      30.12F
6HR MIN TEMP:  49; 6HR MAX TEMP:  70;

RED OAK *      SUNNY     70  30  23 NE12G18   30.14F
SHENANDOAH *   SUNNY     72  28  20 N12G21    30.13F
$$

IAZ047>049-059>061-072>074-084-231900-
   CENTRAL IOWA

CITY           SKY/WX    TMP DP  RH WIND       PRES   REMARKS
AMES           SUNNY     67  31  26 NE8       30.16F
6HR MIN TEMP:  43; 6HR MAX TEMP:  68;

ANKENY *       SUNNY     66  30  26 NE10G20   30.16F
BOONE *        SUNNY     66  32  28 NE6G14    30.16F
CHARITON *     SUNNY     68  30  24 N15G22    30.12F
DES MOINES     PTSUNNY   68  31  25 NE8       30.15F
6HR MIN TEMP:  48; 6HR MAX TEMP:  69;

GRINNELL*      SUNNY     67  24  19 NE16      30.16F
KNOXVILLE *    SUNNY     68  27  21 NE9G18    30.12F
MARSHALLTOWN   SUNNY     68  31  25 NE13      30.15F
6HR MIN TEMP:  39; 6HR MAX TEMP:  68;

NEWTON *       SUNNY     66  30  26 MISG      30.15F
PELLA *        SUNNY     69  26  19 NE9G16    30.14F
$$

IAZ004>006-015-016-023>025-035-036-231900-
   NORTH CENTRAL IOWA

CITY           SKY/WX    TMP DP  RH WIND       PRES   REMARKS
ALGONA *       SUNNY     63  37  39 VRB7      30.20F
CLARION *      SUNNY     64  32  29 E9G16     30.18F
ESTHERVILLE    SUNNY     58  37  45 CALM      30.21F
6HR MIN TEMP:  32; 6HR MAX TEMP:  59;

FORT DODGE *   SUNNY     66  36  32 NE13      30.18F
MASON CITY     SUNNY     63  38  39 NE7       30.21F
6HR MIN TEMP:  35; 6HR MAX TEMP:  63;

IOWA FALLS *   FAIR      66  31  27 E12       30.19F
$$

IAZ007>011-017>019-026>030-037>042-050>054-066-231900-
   NORTHEAST IOWA

CITY           SKY/WX    TMP DP  RH WIND       PRES   REMARKS
CEDAR RAPIDS   FAIR      70  24  17 NE17G24   30.13F
6HR MIN TEMP:  48; 6HR MAX TEMP:  70;

CHARLES CITY * FAIR      64  32  29 E8G14     30.19F
CLINTON *      FAIR      66  33  29 NE16      30.13F
DECORAH *      FAIR      63  28  27 E8        30.18F
DUBUQUE        FAIR      64  24  21 NE16G23   30.15F
6HR MIN TEMP:  41; 6HR MAX TEMP:  65;

MONTICELLO *   FAIR      66  25  20 NE10G17   30.14F
OELWEIN *      FAIR      66  28  24 VRB5G14   30.17F
WATERLOO       FAIR      67  31  26 NE13      30.16F
6HR MIN TEMP:  39; 6HR MAX TEMP:  67;

$$

IAZ064-065-067-068-078-231900-
   EAST CENTRAL IOWA

CITY           SKY/WX    TMP DP  RH WIND       PRES   REMARKS
DAVENPORT      FAIR      68  30  24 NE13      30.14F
6HR MIN TEMP:  40; 6HR MAX TEMP:  68;

IOWA CITY      FAIR      70  22  16 N20       30.13F
6HR MIN TEMP:  48; 6HR MAX TEMP:  70;

MT. PLEASANT * CLOUDY    66  28  24 NE14G20   30.10F
MUSCATINE *    FAIR      66  25  20 NE13G24   30.12F
QUAD CITIES    FAIR      70  33  25 NE9       30.10F
6HR MIN TEMP:  46; 6HR MAX TEMP:  70;

$$

IAZ062-063-075>077-085>089-095>099-231900-
   SOUTHEAST IOWA

CITY           SKY/WX    TMP DP  RH WIND       PRES   REMARKS
BURLINGTON     MOSUNNY   70  32  24 N17       30.07F
6HR MIN TEMP:  47; 6HR MAX TEMP:  70;

FAIRFIELD *    PTSUNNY   66  25  20 NE18      30.11F
FORT MADISON * CLOUDY    70  34  26 NE10G18   30.08F
KEOKUK *       PTSUNNY   66  32  28 NE10G20   30.06F
OSKALOOSA *    FAIR      69  24  18 NE16G22   30.12F
CENTERVILLE *    N/A     70  32  24 N14G20    30.12F
OTTUMWA        MOSUNNY   70  27  20 NE13G23   30.11F
6HR MIN TEMP:  48; 6HR MAX TEMP:  70;

WASHINGTON *   CLOUDY    68  21  17 NE15G23   30.13S
$$

ABBREVIATIONS USED IN REMARKS
   TC - TEMPERATURES IN CELSIUS
  WCI - WIND CHILL INDEX
   HX - HEAT INDEX
  VSB - VISIBILITY
$$





USA.gov is the U.S. government's official web portal to all federal, state and local government web resources and services.